Regional Weather Roundup
Issued by NWS Charleston, SC

Current Version | Previous Version | Graphics & Text | Print | Product List | Glossary On
Versions: 1 2 3 4 5 6 7 8 9 10 11 12 13 14 15 16 17 18 19 20 21 22 23 24 25 26 27 28 29 30 31 32 33 34 35 36 37 38 39 40 41 42 43 44 45 46 47 48 49 50
000 ASUS42 KCHS 252127 RWRCHS REGIONAL WEATHER ROUNDUP NATIONAL WEATHER SERVICE CHARLESTON SC 500 PM EDT THU MAY 25 2017 NOTE: "FAIR" INDICATES FEW OR NO CLOUDS BELOW 12,000 FEET WITH NO SIGNIFICANT WEATHER AND/OR OBSTRUCTIONS TO VISIBILITY. NOT ALL STATIONS ARE QUALITY CONTROLLED. USE DATA WITH CAUTION... ESPECIALLY DEWPOINT OBSERVATIONS. SCZ027-030-031-034>040-042>050-252200- ...SOUTHEAST SOUTH CAROLINA... CITY SKY/WX TMP DP RH WIND PRES REMARKS N CHARLESTON MOSUNNY 76 50 40 W15G25 29.73R WATERFRONT PRK N/A 76 54 46 W10G18 29.71S JOHNS ISLAND FAIR 77 52 41 W17 29.73F PINOPOLIS N/A 73 57 56 W18 29.64S MONCKS CORNER FAIR 73 48 40 W7 29.73S SUMMERVILLE FAIR 73 52 46 W16G23 29.75 BEAUFORT MCAS MOSUNNY 78 53 41 W12G21 29.76S BEAUFORT ARPT FAIR 77 52 41 W21G28 29.76 HILTON HEAD IS MOSUNNY 77 52 41 W16G25 29.77S WALTERBORO PTCLDY 75 52 43 W17G28 29.76R ALLENDALE FAIR 75 50 41 W12G18 29.75S ...SOUTHERN MIDLANDS AND PEE DEE... CITY SKY/WX TMP DP RH WIND PRES REMARKS GEORGETOWN FAIR 75 52 43 W17G28 29.72R KINGSTREE MOCLDY 73 50 43 SW13G22 29.70 ORANGEBURG MOSUNNY 75 52 44 W20G29 29.72S BARNWELL FAIR 75 55 50 W15 29.75S AIKEN FAIR 72 50 46 SW17G28 29.78S MANNING FAIR 73 57 56 W20G28 29.71 COLUMBIA MOSUNNY 76 52 43 W20G28 29.71R SUMTER MOSUNNY 74 52 44 W22 29.67S FLORENCE MOSUNNY 74 56 53 W16G24 29.67S MYRTLE BEACH MOSUNNY 75 55 50 W20G28 29.70S N MYRTLE BEACH MOSUNNY 74 56 53 W15G26 29.68S $$ GAZ063-065-086>088-099>101-113>116-118-119-134>141-150-252200- ...SOUTHEAST GEORGIA... CITY SKY/WX TMP DP RH WIND PRES REMARKS SAVANNAH ARPT MOSUNNY 81 50 33 W21G26 29.78S HUNTER AAF SUNNY 77 59 53 NW15G22 29.76R FORT STEWART SUNNY 77 50 38 W15G23 29.77S STATESBORO SUNNY 76 51 41 W16G24 29.79R SYLVANIA CLEAR 76 55 47 W12G20 29.78S CLAXTON FAIR 75 56 50 SW9G22 29.80R ...CSRA...CENTRAL AND FAR SOUTHEAST GEORGIA... CITY SKY/WX TMP DP RH WIND PRES REMARKS THOMSON MOSUNNY 74 50 42 NW15G24 29.82S AUGUSTA-BUSH MOSUNNY 78 51 38 W14G24 29.74S AUGUSTA-DANIEL PTSUNNY 75 49 39 W12G21 29.77R SWAINSBORO FAIR 75 52 43 W9G20 29.80S VIDALIA MOSUNNY 77 54 44 SW14G23 29.81S EASTMAN FAIR 78 33 20 NW8 29.84F HAZLEHURST FAIR 78 51 39 W5 29.81S ALMA SUNNY 78 50 37 W13 29.81F WAYCROSS SUNNY 82 54 38 W14 29.81S JESUP FAIR 79 45 29 W14G21 29.81R BAXLEY FAIR 79 55 44 NW8 29.81S BRUNSWICK SUNNY 81 54 39 W13G20 29.81R SAINT SIMONS SUNNY 81 50 33 W14 29.79S $$ SCZ027-028-034-036>038-045-046-048>050-GAZ119-141-252200- ...LAKE AND SUPPLEMENTAL COASTAL OBSERVATIONS... STATION/POSITION TIME TEMP WIND PRES WAVE SWELL AIR SEA DIR/SP/G HT/PER HT/PER/DIR (UTC) (F) (DEG/KT/KT) (MB) (FT/S) (FT/S/D) WINYAH BAY 2030 74 260/ 12 1006.0R LAKE MURRAY 2050 72 260/ 19/ 25 1005.1S ACE BASIN NERRS 2045 76 250/ 5 1008.0S FORT PULASKI 2100 75 300/ 17/ 21 1008.4 SAPELO ISLAND 2100 78 270/ 15 1009.0 $$ ANZ835-935-AMZ111-154-330-350-352-354-370-450-454-472-252200- ...C-MAN AND BUOY OBSERVATIONS... STATION/POSITION TIME TEMP WIND PRES WAVE SWELL AIR SEA DIR/SP/G HT/PER HT/PER/DIR (UTC) (F) (DEG/KT/KT) (MB) (FT/S) (FT/S/D) BUOY 41004 2110 73 75 260/ 21/ 27 1007.0 BUOY 41008 2050 76 77 260/ 16/ 19 1008.4R 4/ 5 FOLLY BEACH CMAN 2100 76 260/ 9/ 13 1007.7R CAPERS NEARSHORE 2108 80 77 280/ 19/ 27 1006.4R FRIPP NEARSHORE 2108 74 77 280/ 17/ 25 1007.3F STATION/POSITION TIME TEMP WIND PRES WAVE SWELL AIR SEA DIR/SP/G HT/PER HT/PER/DIR (UTC) (F) (DEG/KT/KT) (MB) (FT/S) (FT/S/D) 5E ST. MARYS GA 2100 78 N/A 3/ 4 FRYING PAN BUOY 2110 72 75 260/ 19/ 23 1005.6 BUOY 41025 2050 76 78 230/ 27/ 31 1001.2F 9/ 8 CAPE LOOKOUT NC 2100 63 260/ 29/ 35 1004.3R BUOY 41002 2050 74 76 220/ 17/ 19 1008.8R 11/ 8 8/180/ 8 BUOY 41010 2110 78 78 270/ 8/ 12 1011.1 ST AUGUSTINE FL 2100 81 78 260/ 7/ 10 1010.7S $$

USA.gov is the U.S. government's official web portal to all federal, state and local government web resources and services.